Location: Unspecified
(0.0000°N, 0.0000°E)
Time: 12:06:00
(UTC+00:00)

Vanguard 1 - Pass Details

Date: 20 November 2019
Orbit: 652 x 3832 km, 34.3° (Epoch: 10 December)

Event Time Altitude Azimuth Distance (km) Brightness Sun altitude
Rises 17:32:14 0° 318° (NW) 3,055 12.9 3.2°
Reaches altitude 10° 17:34:18 10° 323° (NW) 2,260 12.2 2.7°
Maximum altitude 17:39:15 52° 41° (NE) 1,179 10.2 1.5°
Drops below altitude 10° 17:47:15 10° 115° (ESE) 3,609 12.6 -0.4°
Sets 17:51:24 0° 119° (ESE) 5,103 13.3 -1.4°
